Time,TemperatureF,DewpointF,PressureIn,WindDirection,WindDirectionDegrees,WindSpeedMPH,WindSpeedGustMPH,Humidity,HourlyPrecipIn,Conditions,Clouds,dailyrainin,SoftwareType,DateUTC
2013-03-09 00:01:00,26.0,21.0,29.89,SSW,192,0.0,4.0,82,0.00,,,0.18,,2013-03-09 08:01:00,
2013-03-09 00:11:00,26.0,21.0,29.89,SSW,192,0.0,4.0,82,0.00,,,0.18,,2013-03-09 08:11:00,
2013-03-09 00:21:00,26.0,21.0,29.90,SW,215,0.0,2.0,82,0.00,,,0.18,,2013-03-09 08:21:00,
2013-03-09 00:31:00,26.0,21.0,29.90,SSW,192,2.0,3.0,82,0.00,,,0.18,,2013-03-09 08:31:00,
2013-03-09 00:41:00,26.0,21.0,29.90,SSW,192,2.0,3.0,82,0.00,,,0.18,,2013-03-09 08:41:00,
2013-03-09 00:52:00,26.0,22.0,29.90,SW,215,2.0,9.0,83,0.00,,,0.18,,2013-03-09 08:52:00,
2013-03-09 01:01:00,26.0,22.0,29.90,South,189,2.0,4.0,83,0.00,,,0.18,,2013-03-09 09:01:00,
2013-03-09 01:11:00,26.0,22.0,29.90,South,189,2.0,4.0,83,0.00,,,0.18,,2013-03-09 09:11:00,
2013-03-09 01:21:00,26.0,21.0,29.90,SW,216,2.0,9.0,81,0.00,,,0.18,,2013-03-09 09:21:00,
2013-03-09 01:31:00,26.0,21.0,29.91,WSW,241,3.0,6.0,82,0.00,,,0.18,,2013-03-09 09:31:00,
2013-03-09 01:41:00,26.0,21.0,29.91,WSW,241,3.0,6.0,82,0.00,,,0.18,,2013-03-09 09:41:00,
2013-03-09 01:52:00,26.0,21.0,29.91,SW,217,1.0,2.0,82,0.00,,,0.18,,2013-03-09 09:52:00,
2013-03-09 02:01:00,26.0,21.0,29.91,SW,217,1.0,2.0,82,0.00,,,0.18,,2013-03-09 10:01:00,
2013-03-09 02:11:00,26.0,21.0,29.91,SW,217,1.0,2.0,82,0.00,,,0.18,,2013-03-09 10:11:00,
2013-03-09 02:21:00,26.0,21.0,29.91,SSW,198,1.0,6.0,81,0.00,,,0.18,,2013-03-09 10:21:00,
2013-03-09 02:31:00,26.0,20.0,29.90,WNW,282,2.0,9.0,79,0.00,,,0.18,,2013-03-09 10:31:00,
2013-03-09 02:41:00,26.0,20.0,29.90,WNW,282,2.0,9.0,79,0.00,,,0.18,,2013-03-09 10:41:00,
2013-03-09 02:51:00,26.0,20.0,29.91,SSW,200,1.0,0.0,79,0.00,,,0.18,,2013-03-09 10:51:00,
2013-03-09 03:01:00,26.0,20.0,29.90,SSW,202,1.0,2.0,79,0.00,,,0.18,,2013-03-09 11:01:00,
2013-03-09 03:11:00,26.0,20.0,29.90,SSW,202,1.0,2.0,79,0.00,,,0.18,,2013-03-09 11:11:00,
2013-03-09 03:21:00,26.0,21.0,29.91,SW,220,2.0,5.0,81,0.00,,,0.18,,2013-03-09 11:21:00,
2013-03-09 03:31:00,26.0,21.0,29.91,SW,219,2.0,7.0,82,0.00,,,0.18,,2013-03-09 11:31:00,
2013-03-09 03:41:00,26.0,21.0,29.91,SW,219,2.0,7.0,82,0.00,,,0.18,,2013-03-09 11:41:00,
2013-03-09 03:52:00,26.0,21.0,29.92,SSW,198,2.0,7.0,82,0.00,,,0.18,,2013-03-09 11:52:00,
2013-03-09 04:01:00,26.0,21.0,29.92,SW,223,0.0,2.0,81,0.00,,,0.18,,2013-03-09 12:01:00,
2013-03-09 04:11:00,26.0,21.0,29.92,SW,223,0.0,2.0,81,0.00,,,0.18,,2013-03-09 12:11:00,
2013-03-09 04:21:00,26.0,21.0,29.92,SSW,206,0.0,4.0,81,0.00,,,0.18,,2013-03-09 12:21:00,
2013-03-09 04:31:00,26.0,21.0,29.92,SW,217,1.0,4.0,80,0.00,,,0.18,,2013-03-09 12:31:00,
2013-03-09 04:42:00,26.0,21.0,29.92,SW,217,1.0,4.0,80,0.00,,,0.18,,2013-03-09 12:42:00,
2013-03-09 04:52:00,26.0,21.0,29.93,SW,227,0.0,0.0,80,0.00,,,0.18,,2013-03-09 12:52:00,
2013-03-09 05:02:00,26.0,21.0,29.93,SW,227,0.0,0.0,80,0.00,,,0.18,,2013-03-09 13:02:00,
2013-03-09 05:11:00,26.0,21.0,29.93,SW,227,0.0,0.0,80,0.00,,,0.18,,2013-03-09 13:11:00,
2013-03-09 05:21:00,26.0,21.0,29.93,SW,227,1.0,4.0,80,0.00,,,0.18,,2013-03-09 13:21:00,
2013-03-09 05:31:00,26.0,21.0,29.93,SW,226,1.0,2.0,80,0.00,,,0.18,,2013-03-09 13:31:00,
2013-03-09 05:41:00,26.0,21.0,29.93,SW,226,1.0,2.0,80,0.00,,,0.18,,2013-03-09 13:41:00,
2013-03-09 05:51:00,26.0,21.0,29.94,South,182,0.0,0.0,80,0.00,,,0.18,,2013-03-09 13:51:00,
2013-03-09 06:01:00,26.0,21.0,29.94,SSW,206,0.0,2.0,80,0.00,,,0.18,,2013-03-09 14:01:00,
2013-03-09 06:11:00,26.0,21.0,29.94,SSW,206,0.0,2.0,80,0.00,,,0.18,,2013-03-09 14:11:00,
2013-03-09 06:21:00,26.0,21.0,29.95,SSW,206,0.0,0.0,82,0.00,,,0.18,,2013-03-09 14:21:00,
2013-03-09 06:31:00,26.0,21.0,29.95,SW,236,0.0,2.0,82,0.00,,,0.18,,2013-03-09 14:31:00,
2013-03-09 06:41:00,26.0,21.0,29.95,SW,236,0.0,2.0,82,0.00,,,0.18,,2013-03-09 14:41:00,
2013-03-09 06:52:00,26.0,21.0,29.94,SW,229,0.0,4.0,82,0.00,,,0.18,,2013-03-09 14:52:00,
2013-03-09 07:01:00,26.0,22.0,29.95,SW,226,2.0,5.0,83,0.00,,,0.18,,2013-03-09 15:01:00,
2013-03-09 07:11:00,26.0,22.0,29.95,SW,226,2.0,5.0,83,0.00,,,0.18,,2013-03-09 15:11:00,
2013-03-09 07:21:00,26.0,22.0,29.96,SW,230,0.0,4.0,83,0.00,,,0.18,,2013-03-09 15:21:00,
2013-03-09 07:31:00,26.0,22.0,29.96,SW,229,0.0,4.0,84,0.00,,,0.18,,2013-03-09 15:31:00,
2013-03-09 07:42:00,26.0,22.0,29.96,SW,229,0.0,4.0,84,0.00,,,0.18,,2013-03-09 15:42:00,
2013-03-09 07:52:00,27.0,23.0,29.96,WSW,241,0.0,7.0,83,0.00,,,0.18,,2013-03-09 15:52:00,
2013-03-09 08:01:00,27.0,23.0,29.97,SSW,198,1.0,2.0,83,0.00,,,0.18,,2013-03-09 16:01:00,
2013-03-09 08:11:00,27.0,23.0,29.97,SSW,198,1.0,2.0,83,0.00,,,0.18,,2013-03-09 16:11:00,
2013-03-09 08:21:00,27.0,23.0,29.97,South,185,0.0,2.0,83,0.00,,,0.18,,2013-03-09 16:21:00,
2013-03-09 08:31:00,28.0,24.0,29.98,SW,224,0.0,4.0,83,0.00,,,0.18,,2013-03-09 16:31:00,
2013-03-09 08:41:00,28.0,24.0,29.98,SW,224,0.0,4.0,83,0.00,,,0.18,,2013-03-09 16:41:00,
2013-03-09 08:51:00,29.0,24.0,29.99,SW,216,1.0,5.0,80,0.00,,,0.18,,2013-03-09 16:51:00,
2013-03-09 09:01:00,30.0,24.0,29.99,SW,223,1.0,7.0,77,0.00,,,0.18,,2013-03-09 17:01:00,
2013-03-09 09:11:00,30.0,24.0,29.99,SW,223,1.0,7.0,77,0.00,,,0.18,,2013-03-09 17:11:00,
2013-03-09 09:21:00,32.0,25.0,29.99,SW,222,1.0,5.0,76,0.00,,,0.18,,2013-03-09 17:21:00,
2013-03-09 09:32:00,32.0,25.0,30.00,WSW,239,1.0,4.0,74,0.00,,,0.19,,2013-03-09 17:32:00,
2013-03-09 09:42:00,32.0,25.0,30.00,WSW,239,1.0,4.0,74,0.00,,,0.19,,2013-03-09 17:42:00,
2013-03-09 09:52:00,32.0,24.0,30.00,SSE,168,0.0,5.0,73,0.00,,,0.19,,2013-03-09 17:52:00,
2013-03-09 10:01:00,33.0,25.0,30.01,NW,318,0.0,4.0,73,0.00,,,0.20,,2013-03-09 18:01:00,
2013-03-09 10:11:00,33.0,25.0,30.01,NW,318,0.0,4.0,73,0.00,,,0.20,,2013-03-09 18:11:00,
2013-03-09 10:21:00,33.0,25.0,30.01,WNW,298,0.0,4.0,73,0.00,,,0.19,,2013-03-09 18:21:00,
2013-03-09 10:31:00,33.0,25.0,30.02,North,4,1.0,4.0,73,0.00,,,0.19,,2013-03-09 18:31:00,
2013-03-09 10:41:00,33.0,25.0,30.02,North,4,1.0,4.0,73,0.00,,,0.19,,2013-03-09 18:41:00,
2013-03-09 10:52:00,34.0,22.0,30.02,NE,42,1.0,5.0,61,0.00,,,0.18,,2013-03-09 18:52:00,
2013-03-09 11:01:00,34.0,22.0,30.02,SW,226,1.0,7.0,61,0.00,,,0.18,,2013-03-09 19:01:00,
2013-03-09 11:11:00,34.0,22.0,30.02,SW,226,1.0,7.0,61,0.00,,,0.18,,2013-03-09 19:11:00,
2013-03-09 11:21:00,35.0,24.0,30.02,North,349,3.0,9.0,63,0.00,,,0.18,,2013-03-09 19:21:00,
2013-03-09 11:31:00,35.0,24.0,30.02,North,349,3.0,9.0,63,0.00,,,0.18,,2013-03-09 19:31:00,
2013-03-09 11:41:00,35.0,24.0,30.02,North,349,3.0,9.0,63,0.00,,,0.18,,2013-03-09 19:41:00,
2013-03-09 11:52:00,35.0,24.0,30.02,North,349,3.0,9.0,63,0.00,,,0.18,,2013-03-09 19:52:00,
2013-03-09 12:01:00,35.0,24.0,30.02,North,349,3.0,9.0,63,0.00,,,0.18,,2013-03-09 20:01:00,
2013-03-09 12:52:00,36.0,25.0,30.03,WNW,292,0.0,2.0,63,0.00,,,0.09,,2013-03-09 20:52:00,
2013-03-09 13:01:00,37.0,26.0,30.03,WNW,295,1.0,7.0,63,0.00,,,0.11,,2013-03-09 21:01:00,
2013-03-09 13:11:00,37.0,26.0,30.03,WNW,295,1.0,7.0,63,0.00,,,0.11,,2013-03-09 21:11:00,
2013-03-09 13:21:00,34.0,23.0,30.03,NNW,343,2.0,11.0,63,0.00,,,0.11,,2013-03-09 21:21:00,
2013-03-09 13:31:00,35.0,23.0,30.03,SW,215,1.0,11.0,62,0.00,,,0.10,,2013-03-09 21:31:00,
2013-03-09 13:41:00,35.0,23.0,30.03,SW,215,1.0,11.0,62,0.00,,,0.10,,2013-03-09 21:41:00,
2013-03-09 13:52:00,35.0,23.0,30.03,NNE,18,1.0,5.0,62,0.00,,,0.10,,2013-03-09 21:52:00,
2013-03-09 14:01:00,35.0,23.0,30.04,SE,127,1.0,5.0,62,0.00,,,0.08,,2013-03-09 22:01:00,
2013-03-09 14:11:00,35.0,23.0,30.04,SE,127,1.0,5.0,62,0.00,,,0.08,,2013-03-09 22:11:00,
2013-03-09 14:21:00,35.0,23.0,30.04,NW,309,1.0,1.0,61,0.00,,,0.08,,2013-03-09 22:21:00,
2013-03-09 14:32:00,35.0,23.0,30.04,North,0,0.0,0.0,61,0.00,,,0.08,,2013-03-09 22:32:00,
2013-03-09 14:41:00,35.0,23.0,30.04,North,0,0.0,0.0,61,0.00,,,0.08,,2013-03-09 22:41:00,
2013-03-09 14:52:00,36.0,23.0,30.04,NE,40,0.0,2.0,59,0.00,,,0.07,,2013-03-09 22:52:00,
2013-03-09 15:01:00,36.0,23.0,30.05,NNW,336,1.0,5.0,59,0.00,,,0.07,,2013-03-09 23:01:00,
2013-03-09 15:11:00,36.0,23.0,30.05,NNW,336,1.0,5.0,59,0.00,,,0.07,,2013-03-09 23:11:00,
2013-03-09 15:21:00,34.0,22.0,30.05,ESE,112,2.0,10.0,61,0.00,,,0.07,,2013-03-09 23:21:00,
2013-03-09 15:31:00,34.0,22.0,30.05,ESE,112,2.0,10.0,61,0.00,,,0.07,,2013-03-09 23:31:00,
2013-03-09 15:41:00,34.0,22.0,30.05,ESE,112,2.0,10.0,61,0.00,,,0.07,,2013-03-09 23:41:00,
2013-03-09 15:52:00,35.0,23.0,30.06,West,274,1.0,7.0,60,0.00,,,0.07,,2013-03-09 23:52:00,
2013-03-09 16:01:00,36.0,23.0,30.06,West,278,1.0,6.0,60,0.00,,,0.07,,2013-03-10 00:01:00,
2013-03-09 16:11:00,36.0,23.0,30.06,West,278,1.0,6.0,60,0.00,,,0.07,,2013-03-10 00:11:00,
2013-03-09 16:21:00,36.0,23.0,30.06,North,359,1.0,6.0,60,0.00,,,0.07,,2013-03-10 00:21:00,
2013-03-09 16:31:00,37.0,24.0,30.06,NNW,346,0.0,6.0,60,0.00,,,0.07,,2013-03-10 00:31:00,
2013-03-09 16:42:00,37.0,24.0,30.06,NNW,346,0.0,6.0,60,0.00,,,0.07,,2013-03-10 00:42:00,
2013-03-09 16:51:00,36.0,22.0,30.07,WNW,302,2.0,11.0,57,0.00,,,0.07,,2013-03-10 00:51:00,
2013-03-09 17:01:00,35.0,22.0,30.07,ENE,69,0.0,4.0,58,0.00,,,0.07,,2013-03-10 01:01:00,
2013-03-09 17:11:00,35.0,22.0,30.07,ENE,69,0.0,4.0,58,0.00,,,0.07,,2013-03-10 01:11:00,
2013-03-09 17:21:00,35.0,23.0,30.07,North,8,0.0,2.0,60,0.00,,,0.07,,2013-03-10 01:21:00,
2013-03-09 17:31:00,35.0,22.0,30.07,NNE,20,0.0,5.0,59,0.00,,,0.07,,2013-03-10 01:31:00,
2013-03-09 17:41:00,35.0,22.0,30.07,NNE,20,0.0,5.0,59,0.00,,,0.07,,2013-03-10 01:41:00,
2013-03-09 17:51:00,35.0,23.0,30.08,North,4,1.0,9.0,60,0.00,,,0.07,,2013-03-10 01:51:00,
2013-03-09 18:01:00,34.0,22.0,30.09,NE,45,0.0,0.0,62,0.00,,,0.07,,2013-03-10 02:01:00,
2013-03-09 18:11:00,34.0,22.0,30.09,NE,45,0.0,0.0,62,0.00,,,0.07,,2013-03-10 02:11:00,
2013-03-09 18:22:00,34.0,22.0,30.09,NNE,20,0.0,4.0,62,0.00,,,0.07,,2013-03-10 02:22:00,
2013-03-09 18:31:00,33.0,22.0,30.09,NE,34,0.0,0.0,63,0.00,,,0.07,,2013-03-10 02:31:00,
2013-03-09 18:41:00,33.0,22.0,30.09,NE,34,0.0,0.0,63,0.00,,,0.07,,2013-03-10 02:41:00,
2013-03-09 18:52:00,32.0,21.0,30.09,NE,34,0.0,0.0,63,0.00,,,0.07,,2013-03-10 02:52:00,
2013-03-09 19:01:00,31.0,21.0,30.10,ENE,58,0.0,0.0,67,0.00,,,0.07,,2013-03-10 03:01:00,
2013-03-09 19:11:00,31.0,21.0,30.10,NE,42,0.0,0.0,67,0.00,,,0.07,,2013-03-10 03:11:00,
2013-03-09 19:21:00,31.0,21.0,30.10,NE,42,0.0,0.0,67,0.00,,,0.07,,2013-03-10 03:21:00,
2013-03-09 19:31:00,32.0,22.0,30.10,NE,47,0.0,5.0,67,0.00,,,0.07,,2013-03-10 03:31:00,
2013-03-09 19:41:00,32.0,22.0,30.10,NE,47,0.0,5.0,67,0.00,,,0.07,,2013-03-10 03:41:00,
2013-03-09 19:52:00,33.0,22.0,30.11,NNE,28,0.0,2.0,63,0.00,,,0.07,,2013-03-10 03:52:00,
2013-03-09 20:01:00,33.0,20.0,30.11,North,6,2.0,11.0,59,0.00,,,0.07,,2013-03-10 04:01:00,
2013-03-09 20:11:00,33.0,20.0,30.11,North,6,2.0,11.0,59,0.00,,,0.07,,2013-03-10 04:11:00,
2013-03-09 20:21:00,33.0,20.0,30.12,ESE,116,1.0,9.0,58,0.00,,,0.07,,2013-03-10 04:21:00,
2013-03-09 20:31:00,33.0,20.0,30.12,East,89,1.0,6.0,58,0.00,,,0.07,,2013-03-10 04:31:00,
2013-03-09 20:41:00,33.0,20.0,30.12,East,89,1.0,6.0,58,0.00,,,0.07,,2013-03-10 04:41:00,
2013-03-09 20:51:00,34.0,21.0,30.13,North,7,1.0,4.0,58,0.00,,,0.07,,2013-03-10 04:51:00,
2013-03-09 21:01:00,33.0,19.0,30.13,North,0,1.0,7.0,55,0.00,,,0.07,,2013-03-10 05:01:00,
2013-03-09 21:11:00,33.0,19.0,30.13,North,0,1.0,7.0,55,0.00,,,0.07,,2013-03-10 05:11:00,
2013-03-09 21:21:00,33.0,19.0,30.13,NE,42,1.0,7.0,55,0.00,,,0.07,,2013-03-10 05:21:00,
2013-03-09 21:31:00,34.0,19.0,30.13,NNE,14,3.0,13.0,53,0.00,,,0.07,,2013-03-10 05:31:00,
2013-03-09 21:42:00,34.0,19.0,30.13,NNE,20,1.0,15.0,53,0.00,,,0.07,,2013-03-10 05:42:00,
2013-03-09 21:52:00,34.0,19.0,30.13,NNE,20,1.0,15.0,53,0.00,,,0.07,,2013-03-10 05:52:00,
2013-03-09 22:01:00,34.0,17.0,30.13,North,350,3.0,12.0,50,0.00,,,0.07,,2013-03-10 06:01:00,
2013-03-09 22:11:00,34.0,17.0,30.13,North,350,3.0,12.0,50,0.00,,,0.07,,2013-03-10 06:11:00,
2013-03-09 22:21:00,35.0,17.0,30.14,NNE,23,3.0,15.0,48,0.00,,,0.07,,2013-03-10 06:21:00,
2013-03-09 22:31:00,35.0,16.0,30.14,NE,38,3.0,10.0,45,0.00,,,0.07,,2013-03-10 06:31:00,
2013-03-09 22:41:00,36.0,17.0,30.14,SE,126,4.0,11.0,46,0.00,,,0.07,,2013-03-10 06:41:00,
2013-03-09 22:52:00,36.0,17.0,30.14,SE,126,4.0,11.0,46,0.00,,,0.07,,2013-03-10 06:52:00,
2013-03-09 23:01:00,36.0,16.0,30.15,East,85,2.0,10.0,43,0.00,,,0.07,,2013-03-10 07:01:00,
2013-03-09 23:11:00,36.0,16.0,30.15,NE,38,4.0,13.0,43,0.00,,,0.07,,2013-03-10 07:11:00,
2013-03-09 23:21:00,36.0,16.0,30.15,NE,38,4.0,13.0,43,0.00,,,0.07,,2013-03-10 07:21:00,
2013-03-09 23:31:00,35.0,17.0,30.16,NE,35,2.0,0.0,47,0.00,,,0.07,,2013-03-10 07:31:00,
2013-03-09 23:41:00,35.0,16.0,30.16,North,8,3.0,9.0,46,0.00,,,0.07,,2013-03-10 07:41:00,
2013-03-09 23:52:00,35.0,16.0,30.16,North,8,3.0,9.0,46,0.00,,,0.07,,2013-03-10 07:52:00,